Regional Weather Roundup
Issued by NWS

Home | Current Version | Previous Version | Graphics & Text | Print | Product List | Glossary On
Versions: 1 2 3 4 5 6 7 8 9 10 11 12 13 14 15 16 17 18 19 20 21 22 23 24 25 26 27 28 29 30 31 32 33 34 35 36 37 38 39 40 41 42 43 44 45 46 47 48 49 50
000
ASUS43 KMPX 222101
RWRMN
WEATHER ROUNDUP FOR MINNESOTA
NATIONAL WEATHER SERVICE TWIN CITIES/CHANHASSEN MN
400 PM CDT FRI MAY 22 2015


NOTE: "FAIR" INDICATES FEW OR NO CLOUDS BELOW 12,000 FEET WITH NO
SIGNIFICANT WEATHER AND/OR OBSTRUCTIONS TO VISIBILITY. N/A MEANS
CURRENT SKY AND/OR WEATHER CONDITIONS ARE NOT AVAILABLE.

MNZ060>063-068>070-222200-
   Twin Cities Metro

CITY           SKY/WX    TMP DP  RH WIND       PRES   REMARKS
TWIN CITIES    MOSUNNY   72  33  24 VRB3      30.20F
ST PAUL        SUNNY     72  35  25 NE5       30.21F
CRYSTAL        SUNNY     74  34  23 VRB7      30.19F
LAKEVILLE      SUNNY     72  37  28 W6        30.21S
EDEN PRAIRIE   SUNNY     73  37  27 CALM      30.20F
SOUTH ST PAUL  SUNNY     73  32  22 NE5       30.20F
LAKE ELMO      FAIR      72  41  33 W8        30.22F
$$
MNZ001>005-007-008-013>017-022>024-027-028-222200-
   Northwest Minnesota

CITY           SKY/WX    TMP DP  RH WIND       PRES   REMARKS
BEMIDJI        SUNNY     74  35  23 S6        30.16F
HALLOCK        MOSUNNY   79  37  22 SW17      30.10F
ROSEAU         SUNNY     75  37  25 W12G22    30.12S
WARROAD        SUNNY     75  45  33 W12G22    30.12S
THIEF RVR FALL SUNNY     73  34  23 SW5       30.16S
CROOKSTON      SUNNY     75  37  25 W14       30.15F
FOSSTON        SUNNY     75  41  29 CALM      30.17F
DETROIT LAKES  SUNNY     72  32  23 SW6       30.20S
MOORHEAD       SUNNY     73  37  27 S7        30.17F
PARK RAPIDS    SUNNY     74  30  19 VRB3      30.17F
MAHNOMEN       FAIR      73  33  23 CALM      30.17S
$$
MNZ006-009>011-018-025>026-222200-
   North Central Minnesota

CITY           SKY/WX    TMP DP  RH WIND       PRES   REMARKS
BAUDETTE       SUNNY     77  38  24 W8G17     30.11F
FLAG ISLAND    SUNNY     61  48  63 S15       30.06F
INTL FALLS     SUNNY     75  32  20 W12       30.12F
WASKISH        SUNNY     72  43  35 CALM      30.15F
BIG FORK       SUNNY     73  32  21 NE5       30.15F
LONGVILLE      SUNNY     73  32  21 S3        30.18F
GRAND RAPIDS   SUNNY     72  36  26 SW3       30.18F
CRANE LAKE     SUNNY     72  28  20 N3        30.14F
ORR            SUNNY     72  28  20 CALM      30.12F
COOK           SUNNY     72  34  25 NW5       30.15F
WALKER         FAIR      71  33  24 S6        30.17S
$$
MNZ012-019>021-037-222200-
   Northeast Minnesota

CITY           SKY/WX    TMP DP  RH WIND       PRES   REMARKS
DULUTH         MOSUNNY   71  31  22 VRB3      30.18F
ELY            SUNNY     70  28  21 W6        30.15F
HIBBING        SUNNY     72  31  22 VRB6      30.16F
EVELETH        SUNNY     72  32  23 W9        30.17F
DULUTH HARBOR  SUNNY     48  36  61 NE7       30.20F
TWO HARBORS    SUNNY     68  43  40 S9        30.16F
SILVER BAY     SUNNY     64  32  29 S10       30.17S
GRAND MARAIS     N/A     44  34  67 E3        30.23S
G MARAIS ARPRT SUNNY     57  25  28 S7        30.20S
$$
MNZ029>031-032-039>041-046>048-054>057-064-222200-
   West Central Minnesota

CITY           SKY/WX    TMP DP  RH WIND       PRES   REMARKS
FERGUS FALLS   SUNNY     73  36  25 S3        30.17F
WHEATON        SUNNY     72  32  23 SE7       30.18F
MORRIS         SUNNY     75  32  20 CALM      30.17F
ALEXANDRIA     SUNNY     71  35  26 SW9       30.20F
ELBOW LAKE     FAIR      72  37  28 S7        30.18F
WADENA         SUNNY     72  37  28 CALM      30.19S
GLENWOOD       SUNNY     72  34  25 SE9       30.21F
APPLETON       SUNNY     75  25  15 CALM      30.16F
BENSON         SUNNY     73  27  17 CALM      30.18F
ORTONVILLE     SUNNY     73  30  20 NE3       30.17F
MADISON        SUNNY     75  30  19 SE3       30.16F
WILLMAR        FAIR      73  34  23 SW6       30.20S
$$
MNZ033>034-036-042>043-049>051-058-059-222200-
   Central Minnesota

CITY           SKY/WX    TMP DP  RH WIND       PRES   REMARKS
ST CLOUD       SUNNY     72  36  26 CALM      30.20F
SAUK CENTRE    FAIR      71  35  26 NE7       30.20F
PAYNESVILLE    SUNNY     69  33  26 NE3       30.20F
AITKIN         SUNNY     73  27  17 SW5       30.18S
PINE RIVER     SUNNY     72  41  33 SW3       30.20F
BRAINERD       SUNNY     73  32  22 N7        30.19F
STAPLES        SUNNY     72  32  23 S6        30.19F
LONG PRAIRIE   FAIR      70  34  26 SE6       30.20F
LITTLE FALLS   SUNNY     72  32  23 S7        30.21S
LITCHFIELD     SUNNY     72  36  26 N6        30.21F
BUFFALO        SUNNY     71  33  24 SW3       30.22F
MAPLE LAKE     SUNNY     73  40  30 CALM      30.22S
$$
MNZ037-044-045-052-053-222200-
   East Central Minnesota

CITY           SKY/WX    TMP DP  RH WIND       PRES   REMARKS
PRINCETON      SUNNY     73  36  25 SW6       30.21S
MORA           SUNNY     70  37  30 S10       30.22S
CAMBRIDGE      SUNNY     73  46  38 CALM      30.19S
RUSH CITY      SUNNY     70  35  26 CALM      30.21F
MOOSE LAKE     SUNNY     72  36  26 CALM      30.17F
HINCKLEY       FAIR      70  37  30 CALM      30.20S
CLOQUET        SUNNY     72  25  17 W6        30.18S
MCGREGOR       SUNNY     70  36  28 SW8       30.19F
$$
MNZ071>073-080-081-089-090-097-098-222200-
   Southwest Minnesota

CITY           SKY/WX    TMP DP  RH WIND       PRES   REMARKS
MONTEVIDEO     SUNNY     79  30  17 CALM      30.18F
GRANITE FALLS  SUNNY     75  28  17 SW5       30.18F
CANBY          MOSUNNY   74  35  23 CALM      30.17F
MARSHALL       MOSUNNY   73  32  21 CALM      30.17S
REDWOOD FALLS  MOSUNNY   75  32  20 NE8       30.17F
OLIVIA         MOSUNNY   72  32  23 SW3       30.18F
WINDOM         PTSUNNY   73  19  13 CALM      30.19S
WORTHINGTON    CLOUDY    73  28  19 W5        30.18F
JACKSON        CLOUDY    73  28  19 S7        30.20S
TRACY          PTSUNNY   75  34  22 SE8       30.18S
SLAYTON        CLOUDY    73  31  21 CALM      30.19F
$$
MNZ065>067-074>077-082>085-091>093-222200-
   South Central Minnesota

CITY           SKY/WX    TMP DP  RH WIND       PRES   REMARKS
MANKATO        MOSUNNY   72  32  23 SW3       30.19F
NEW ULM        MOSUNNY   72  30  21 NE5       30.18F
ST JAMES       PTSUNNY   75  32  20 CALM      30.19S
FAIRMONT       CLOUDY    73  28  19 E8        30.19S
GLENCOE        SUNNY     74  37  26 CALM      30.19F
FARIBAULT      SUNNY     72  34  25 N8        30.20F
OWATONNA       SUNNY     72  30  21 N5        30.19F
WASECA         MOSUNNY   72  34  25 CALM      30.20F
ALBERT LEA     PTSUNNY   72  32  23 CALM      30.20S
$$
MNZ078>079-086>088-094>096-222200-
   Southeast Minnesota

CITY           SKY/WX    TMP DP  RH WIND       PRES   REMARKS
ROCHESTER      SUNNY     70  38  31 E8        30.21F
RED WING       SUNNY     73  34  23 S5        30.20S
STANTON        SUNNY     73  30  20 CALM      30.20S
DODGE CENTER   SUNNY     72  30  21 CALM      30.20F
WINONA         SUNNY     73  39  29 NE6       30.20F
AUSTIN         MOSUNNY   72  39  30 SE3       30.20S
PRESTON        MOSUNNY   70  31  23 CALM      30.21F
$$
ABBREVIATIONS USED IN REMARKS
   TC - TEMPERATURES IN CELSIUS
  WCI - WIND CHILL INDEX
   HX - HEAT INDEX
  VSB - VISIBILITY
$$



USA.gov is the U.S. government's official web portal to all federal, state and local government web resources and services.